Flag for Russia Weather past 2 weeks in Syktyvkar, Russia

Now
39 °F

Fog.


Feels Like: 39 °F
Forecast: 41 / 59 °F
Wind: 1 mph from North

Location: Syktyvkar Airport

Current Time: Sep 24, 2014 at 4:40:46 AM

Latest Report: Sep 24, 2014 at 3:30 AM


Visibility: 2 mi

Pressure: 29.98 "Hg

Humidity: 93%

Dew point: 37 °F

Location of SyktyvkarLocation

Historic Weather in Syktyvkar — Graph

°F

Syktyvkar temperature yesterday

Maximum temperature yesterday: 66 °F (at 3:00 PM)
Minimum temperature yesterday: 41 °F (at 5:30 AM)
Average temperature yesterday: 51 °F

Past Weeks' High & Low Weather Summary

 TemperatureHumidityPressure
High72 °F (Sep 12, 2:30 PM)100% (Sep 10, 7:00 AM)30.36 "Hg (Sep 10, 7:00 AM)
Low34 °F (Sep 14, 6:00 AM)30% (Sep 23, 3:00 PM)29.77 "Hg (Sep 16, 4:00 AM)
Average49 °F78%30.07 "Hg
* Reported Sep 9 3:00 AM — Sep 24 3:00 AM, Syktyvkar, Weather by CustomWeather, © 2014

Note: Actual official high and low records may vary slightly from our data, if they occured in-between our weather recording intervals... More about our weather records

Advertising

Syktyvkar weather history for previous 24 hours

 ConditionsComfort  
Time TempWeatherWind HumidityBarometerVisibility
3:00 AM
Sep 24
41 °FFog.3 mph87%29.98 "Hg3 mi
2:30 AM39 °FFog.3 mph93%29.98 "Hg3 mi
2:00 AM43 °FFog.3 mph81%29.98 "Hg3 mi
1:30 AM43 °FFog.3 mph81%29.98 "Hg3 mi
1:00 AM45 °FFog.3 mph87%29.95 "Hg3 mi
12:30 AM46 °FPassing clouds.3 mph87%29.95 "Hg4 mi
12:00 AM41 °FFog.1 mph93%29.95 "Hg3 mi
11:30 PM
Sep 23
41 °FFog.1 mph93%29.95 "Hg3 mi
11:00 PM41 °FFog.1 mph93%29.95 "Hg3 mi
10:30 PM43 °FPassing clouds.1 mph87%29.95 "Hg4 mi
10:00 PM45 °FFog.1 mph81%29.95 "Hg3 mi
9:30 PM46 °FPassing clouds.1 mph82%29.95 "Hg5 mi
9:00 PM50 °FPassing clouds.1 mph71%29.95 "Hg5 mi
8:30 PM52 °FClear.3 mph67%29.95 "Hg10 mi
8:00 PM52 °FPassing clouds.3 mph67%29.95 "Hg5 mi
7:30 PM54 °FPassing clouds.3 mph63%29.95 "Hg6 mi
7:00 PM54 °FPassing clouds.1 mph63%29.95 "Hg6 mi
6:30 PM55 °FSunny.1 mph55%29.92 "Hg10 mi
6:00 PM57 °FSunny.3 mph55%29.92 "Hg10 mi
5:30 PM61 °FSunny.3 mph45%29.92 "Hg10 mi
5:00 PM63 °FSunny.6 mph39%29.92 "Hg10 mi
4:30 PM64 °FScattered clouds.8 mph34%29.92 "HgN/A
4:00 PM64 °FScattered clouds.6 mph34%29.92 "HgN/A
3:30 PM66 °FSunny.10 mph30%29.95 "Hg10 mi
3:00 PM66 °FSunny.8 mph30%29.95 "Hg10 mi
2:00 PM64 °FSunny.8 mph37%29.95 "Hg10 mi
1:30 PM64 °FSunny.8 mph37%29.95 "Hg10 mi
1:00 PM64 °FSunny.8 mph40%29.95 "Hg10 mi
12:30 PM63 °FSunny.8 mph45%29.95 "Hg10 mi
12:00 PM61 °FSunny.8 mph48%29.95 "Hg10 mi
11:30 AM59 °FSunny.8 mph51%29.95 "Hg10 mi
11:00 AM57 °FPassing clouds.8 mph55%29.95 "Hg6 mi
10:30 AM55 °FPassing clouds.6 mph59%29.95 "Hg6 mi
10:00 AM52 °FPassing clouds.8 mph67%29.95 "Hg5 mi
9:30 AM50 °FScattered clouds.6 mph76%29.95 "Hg4 mi
9:00 AM48 °FPassing clouds.3 mph76%29.95 "Hg4 mi
8:30 AM46 °FScattered clouds.6 mph82%29.95 "Hg4 mi
8:00 AM45 °FFog.6 mph81%29.95 "Hg3 mi
7:30 AM43 °FFog.6 mph87%29.95 "Hg3 mi
7:00 AM41 °FFog.6 mph93%29.95 "Hg3 mi
6:30 AM41 °FFog.6 mph87%29.95 "Hg3 mi
6:00 AM41 °FFog.6 mph87%29.92 "Hg3 mi
5:30 AM41 °FFog.6 mph87%29.92 "Hg3 mi
5:00 AM43 °FPassing clouds.8 mph87%29.95 "Hg4 mi
4:30 AM43 °FClear.8 mph87%29.95 "Hg4 mi
4:00 AM43 °FClear.6 mph87%29.95 "Hg4 mi
Weather by CustomWeather, © 2014

See weather overviewHow to use our weather pages